Regional Weather Roundup
Issued by NWS Kansas City/Pleasant Hill, MO

Home | Current Version | Previous Version | Text Only | Print | Product List | Glossary On
Versions: 1 2 3 4 5 6 7 8 9 10 11 12 13 14 15 16 17 18 19 20 21 22 23 24 25 26 27 28 29 30 31 32 33 34 35 36 37 38 39 40 41 42 43 44 45 46 47 48 49 50
339
ASUS43 KEAX 091310
RWREAX

WEATHER ROUNDUP FOR EASTERN KANSAS AND NORTHWEST MISSOURI
NATIONAL WEATHER SERVICE KANSAS CITY/PLEASANT HILL MO
700 AM CST FRI DEC 09 2016

KSZ040-057-103>105-MOZ028-029-037-043-091400-
...KANSAS CITY METROPOLITAN AREA...

CITY           SKY/WX    TMP DP  RH WIND       PRES   REMARKS
K.C. INTL      PTCLDY    12   6  77 NE5       30.63S WCI   4
K.C. DOWNTOWN  CLEAR     16   8  71 NE5       30.66S WCI   9
LEES SUMMIT    CLEAR     15   8  73 NE5       30.63F WCI   8
OLATHE - IXD   CLOUDY    14  10  84 CALM      30.64S
OLATHE - OJC   CLOUDY    12   9  87 CALM      30.63S
LAWRENCE       CLOUDY    11   9  92 CALM      30.66S

$$

MOZ001>008-011>017-020>025-030>033-038>040-044>046-053-054-091400-
...NORTHERN AND CENTRAL MISSOURI...

CITY           SKY/WX    TMP DP  RH WIND       PRES   REMARKS
ST. JOSEPH     CLEAR      7   4  87 CALM      30.65F
MOSBY            N/A     10   9  92 CALM      30.66F
WARRENSBURG    CLEAR     14   9  79 CALM      30.66S
WHITEMAN AFB   CLEAR     16  11  80 NW6       30.64F WCI   7
CLINTON        CLEAR      9   7  92 CALM      30.67S
SEDALIA        CLEAR     14   8  77 NW5       30.66S WCI   6
WARSAW         NOT AVBL
CHILLICOTHE      N/A     10   6  84 CALM      30.66F
KIRKSVILLE     CLEAR      8   5  87 W5        30.61F WCI   0

$$

MOZ041-047>049-056>058-063>065-088>090-097-091400-
...EASTERN AND SOUTHERN MISSOURI...

CITY           SKY/WX    TMP DP  RH WIND       PRES   REMARKS
ST. LOUIS INTL CLEAR     17   9  70 W7        30.63R WCI   8
SPIRIT OF STL  CLEAR     15  11  83 W5        30.65R WCI   8
COLUMBIA       CLEAR     13   8  81 W6        30.63S WCI   4
JEFFERSON CITY PTCLDY    13   9  84 CALM      30.67S
ROLLA          CLEAR     12   9  87 NW6       30.59F WCI   3
OSAGE BEACH    CLEAR     12   7  80 CALM      30.66S
SPRINGFIELD    CLOUDY    11   8  88 NW3       30.61S
BRANSON        PTCLDY    14  10  85 CALM      30.64R
JOPLIN         CLOUDY    14  11  87 CALM      30.66S
WEST PLAINS    CLEAR     12   8  84 SW3       30.62R

$$

IAZ060-094-KSZ022-034>040-054-083-096-NEZ052-066-093-091400-
...KANSAS...SOUTHEAST NEBRASKA AND IOWA...

CITY           SKY/WX    TMP DP  RH WIND       PRES   REMARKS
TOPEKA         CLOUDY    14   9  80 CALM      30.65S
MANHATTAN      CLOUDY    15   9  76 CALM      30.63R
EMPORIA        CLOUDY    15  11  83 S3        30.62S
CHANUTE        CLOUDY    13   9  84 CALM      30.65S
WICHITA        CLOUDY    17  12  80 SE6       30.58F WCI   9
OMAHA          MOCLDY     8   2  76 N3        30.63S
LINCOLN        CLOUDY     5   1  83 N3        30.61F
FALLS CITY     CLEAR      6   3  87 CALM      30.62F
LAMONI         CLEAR      6   3  87 W6        30.60S WCI  -4

$$





USA.gov is the U.S. government's official web portal to all federal, state and local government web resources and services.